Location: Sternwarte-Kraichtal
(49.1689°N, 8.6996°E)
Time: 20:37:27
(UTC+02:00)

Vanguard 2 Rocket - Pass Details

Date: 30 May 2022
Orbit: 553 x 3323 km, 32.9° (Epoch: 02 July)

Event Time Altitude Azimuth Distance (km) Brightness Sun altitude
Rises 16:41:47 0° 260° (W) 7,284 12.3 42.3°
Reaches altitude 10° 16:47:21 10° 254° (WSW) 6,129 12.3 41.5°
Maximum altitude 17:03:30 40° 195° (SSW) 3,354 10.5 38.9°
Drops below altitude 10° 17:14:19 10° 131° (SE) 4,147 10.0 37.2°
Sets 17:17:16 0° 124° (SE) 4,803 10.2 36.7°
